Regional Weather Roundup
Issued by NWS Grand Forks, ND

Home | Current Version | Previous Version | Text Only | Print | Product List | Glossary Off
Versions: 1 2 3 4 5 6 7 8 9 10 11 12 13 14 15 16 17 18 19 20 21 22 23 24 25 26 27 28 29 30 31 32 33 34 35 36 37 38 39 40 41 42 43 44 45 46 47 48 49 50

000
ASUS43 KFGF 220431
RWRFGF
PRAIRIE TO PINES  WEATHER ROUNDUP
NATIONAL WEATHER SERVICE EASTERN NORTH DAKOTA/GRAND FORKS ND
1100 PM CDT THU MAY 21 2015

 **SATELLITE DATA USED TO AUGMENT SKY COVER AT AUTOMATED STATIONS**
 *****  WEATHER ACROSS EASTERN NORTH DAKOTA  *****

CITY           SKY/WX    TMP DP  RH WIND       PRES   REMARKS
GRAND FORKS    CLEAR     45  40  82 CALM      30.12R
GRAND FRKS AFB CLEAR     47  41  80 W3        30.13R
GRAND FRKS NWS   N/A     48 N/A N/A NE2         N/A
DEVILS LAKE    CLEAR     52  37  58 CALM      30.13S
FARGO          CLEAR     55  42  61 N5        30.12R
WAHPETON ARPT  CLEAR     54  34  47 N6        30.13S
$$

 ***** WEATHER ACROSS CENTRAL AND WESTERN NORTH DAKOTA  *****

CITY           SKY/WX    TMP DP  RH WIND       PRES   REMARKS
BISMARCK       CLOUDY    58  44  60 NE8       30.13R
MINOT          FAIR      56  39  53 SE5       30.12R
JAMESTOWN      CLEAR     54  45  71 E5        30.13R
MINOT AFB      CLEAR     54  37  52 S2        30.11R
GARRISON         N/A     57  38  48 E3        30.12R
WILLISTON      CLEAR     59  34  39 SE5       30.10R
DICKINSON      CLEAR     51  34  52 S6        30.12R
HETTINGER      CLEAR     52  34  50 SE5       30.15R
$$

 *****  OTHER AIRPORT OBSERVATIONS IN OUR AREA  *****

CITY           SKY/WX    TMP DP  RH WIND       PRES   REMARKS
WALHALLA       FAIR      48  39  71 SW3       30.13R
GRAFTON AIRPOR FAIR      54  41  62 CALM      30.13S
VALLEY CITY AR FAIR      54  36  50 CALM      30.14S
CANDO          FAIR      54  32  43 E5        30.14S
CAVALIER APRT  FAIR      50  43  76 CALM      30.12S
GWINNER        NOT AVBL
SHEYENNE NWR     N/A     48  44  87 CALM      29.95
ROLLA          FAIR      46  36  66 SW3       30.15S
 ***** THE ABOVE OBSERVATIONS ARE NON NWS ARE NOT QUALITY
       CONTROLLED AND MAY MIS-REPORT RAIN FOR SNOW...
$$

  *****  WEATHER ACROSS NORTHERN MINNESOTA  *****

CITY           SKY/WX    TMP DP  RH WIND       PRES   REMARKS
FLAG ISLAND    PTCLDY    54  43  66 CALM      30.10R
WARROAD        PTCLDY    52  37  58 N3        30.12S
ROSEAU         PTCLDY    54  34  47 W3        30.12S
HALLOCK        CLEAR     48  41  76 E5        30.12S
THF RVR FALLS  CLEAR     52  36  54 CALM      30.13S
BAUDETTE       CLEAR     45  40  82 CALM      30.10S
WASKISH        CLEAR     45  39  81 CALM      30.11R
CROOKSTON      CLEAR     55  37  50 NE3       30.14R
STEPHEN NDAWN    N/A     50  39  66 SE3         N/A
GREENBUSH NDAW   N/A     48  43  81 SW1         N/A
$$
  *****  WEATHER ACROSS CENTRAL AND WEST MINNESOTA  *****

CITY           SKY/WX    TMP DP  RH WIND       PRES   REMARKS
FOSSTON        CLEAR     45  34  65 CALM      30.13S
BEMIDJI        CLEAR     42  34  71 CALM      30.12R
PARK RAPIDS    CLEAR     53  34  48 CALM      30.11R
ELBOW LAKE     FAIR      55  41  60 NW3       30.13R
WADENA         CLEAR     50  37  62 CALM      30.12R
DETROIT LAKES  CLEAR     54  37  54 NW5       30.14S
MOORHEAD       CLEAR     52  41  66 N3        30.14R
FERGUS FALLS   CLEAR     54  36  50 N6        30.14R
MORRIS MN      CLEAR     55  37  50 NW8       30.12S
STAPLES        CLEAR     48  36  61 CALM      30.12R
$$
  *****  WEATHER ELSEWHERE ACROSS MINNESOTA  *****

CITY           SKY/WX    TMP DP  RH WIND       PRES   REMARKS
DULUTH         CLEAR     52  32  46 N5        30.08R
INTRNTL FALLS  CLEAR     39  35  86 CALM      30.09R
ELY            CLEAR     39  28  65 CALM      30.09S
CLOQUET        CLEAR     46  28  49 NW5       30.09R
WHEATON        CLEAR     50  36  57 CALM      30.15R
BRAINERD       CLEAR     47  36  65 CALM      30.11R
HIBBING        CLEAR     39  29  67 CALM      30.09R
ALEXANDRIA     CLEAR     52  39  61 NW5       30.13R
SAINT CLOUD    CLEAR     47  40  76 CALM      30.09R
MINNEAPOLIS    CLEAR     59  36  42 NW6       30.08R
$$

  *****  WEATHER ACROSS SOUTH DAKOTA  *****

CITY           SKY/WX    TMP DP  RH WIND       PRES   REMARKS
SIOUX FALLS    PTCLDY    54  42  64 CALM      30.14R
BROOKINGS      CLEAR     54  39  58 CALM      30.17R
WATERTOWN      CLEAR     56  33  42 CALM      30.14R
HURON          PTCLDY    62  38  40 W5        30.14R
SISSETON         N/A     51  38  60 W6        30.13R
ABERDEEN       CLEAR     58  42  55 NE5       30.13R
MITCHELL       CLEAR     59  40  49 SW6       30.15R
PIERRE         CLEAR     57  36  45 SW6       30.14R
MOBRIDGE       CLEAR     57  40  52 CALM      30.11R
RAPID CITY     CLEAR     49  42  77 E3        30.13S
$$

  *****  SOME WEATHER IN NEARBY STATES *****

CITY           SKY/WX    TMP DP  RH WIND       PRES   REMARKS
GLASGOW MT     CLEAR     54  33  45 E12       30.06R
GREAT FALLS MT CLEAR     56  42  59 S5        29.94S
CHEYENNE WY    CLOUDY    46  42  86 SE13      30.13S
SCOTTSBLUFF NE CLOUDY    52  45  77 SE15      30.14R
OMAHA NE       PTCLDY    62  40  44 W6        30.17R
DES MOINES IA  CLEAR     61  41  47 NW5       30.12R
DAVENPORT IA   CLEAR     58  43  57 NW3       30.06R
CHICAGO IL     CLEAR     59  38  45 SW6       30.02S
EAU CLAIRE WI  CLEAR     50  38  63 NE5       30.05R
LA CROSSE WI   CLEAR     57  45  64 CALM      30.04R
$$

  *****  SOME NATIONAL WEATHER *****

CITY           SKY/WX    TMP DP  RH WIND       PRES   REMARKS
LA GUARDIA NY  CLOUDY    54  45  71 SW7       29.88F
RALEIGH NC     PTCLDY    58  54  86 VRB3      29.97R
ATLANTA GA     MOCLDY    60  47  61 NW16      30.10R
NEW ORLEANS LA MOCLDY    74  68  81 NE8       30.07R
OKLAHOMA CITY  PTCLDY    56  49  77 E9        30.19S
ALBUQUERQUE NM CLOUDY    50  41  71 E24       30.05R
SALT LAKE CITY CLOUDY    60  45  57 CALM      29.88F
LOS ANGELES CA PTCLDY    59  52  77 W13       29.97R
BOISE ID       MOCLDY    63  45  51 SE5       29.83R
SEATTLE WA     MOCLDY    70  55  59 CALM      29.84R
$$

*** WEATHER ACROSS MANITOBA...SASKATCHEWAN AND ONTARIO ***
                ***ONTARIO***

CITY           SKY/WX    TMP DP  RH WIND       PRES   REMARKS
GERALDTON      CLEAR     30  19  64 NE8       30.12R WCI  23
THUNDER BAY    CLEAR     36  30  80 VRB3      30.10R
SIOUX LOOKOUT  CLEAR     32  30  93 CALM      30.10R
TORONTO        PTCLDY    55  36  47 W10       29.86R
BIG TROUT LK   CLEAR     30  23  74 SE3       30.14F
PICKLE LAKE    NOT AVBL
DRYDEN         CLEAR     46  25  42 N5        30.10R
KENORA         PTCLDY    52  28  40 N3        30.11R
$$
                *** MANITOBA***

CITY           SKY/WX    TMP DP  RH WIND       PRES   REMARKS
BRANDON        PTCLDY    52  37  58 SW7       30.10S
DAUPHIN        MOCLDY    59  43  55 S7        30.05S
ISLAND LAKE    PTCLDY    43  25  49 SE3       30.11F
PILOT MOUND      N/A     50  36  57 SE6         N/A
THE PAS        PTCLDY    52  39  62 SE13      29.99F
THOMPSON       PTCLDY    50  28  43 VRB2      30.03F
WINNIPEG       PTCLDY    54  37  54 SE5       30.12S
LYNN LAKE      PTCLDY    55  34  44 E6        29.95S
CHURCHILL      PTCLDY    37  32  81 S12       30.05F
GILLAM         PTCLDY    41  25  52 SE6       30.09F
$$
                ***SASKATCHEWAN***

CITY           SKY/WX    TMP DP  RH WIND       PRES   REMARKS
ESTEVAN        PTCLDY    55  39  54 SE10      30.12R
KINDERSLEY     CLEAR     61  27  27 SE14      30.04R
LLOYDMINSTER   PTCLDY    63  23  22 SE6       29.99S
PRINCE ALBERT  PTCLDY    55  32  41 W5        30.03R
REGINA         PTCLDY    57  32  38 S8        30.09R
YORKTON        CLEAR     63  34  34 SW8       30.07S
N. BATTLEFORD  CLEAR     54  30  40 SE8       30.04R
LA RONGE       PTCLDY    57  32  38 VRB2      29.95F
SASKATOON      CLEAR     59  32  36 S8        30.06S
SWIFT CURRENT  CLEAR     52  28  40 SE9       30.07R
$$
NOTE: THESE ARE AUTOMATED STATIONS WITH LIMITED QUALITY CONTROL
      "FAIR" INDICATES FEW OR NO CLOUDS BELOW 12,000 FEET WITH NO
      SIGNIFICANT WEATHER AND/OR OBSTRUCTIONS TO VISIBILITY.
      SKY/WX - SKY CONDITION AND SIGNIFICANT WEATHER.
      TMP - AIR TEMPERATURE.    DP   - DEWPOINT TEMPERATURE.
      RH  - RELATIVE HUMIDITY.  PRES - PRESSURE.
      HX  - HEAT INDEX.         WCI  - WIND CHILL INDEX.
$



USA.gov is the U.S. government's official web portal to all federal, state and local government web resources and services.